When you browse on this site, cookies collect data to enhance your experience and personalize the content and advertising you see.
Visit our Privacy Policy to learn more. By continuing to use the site, you agree to this use of cookies and data.
  • In Hungary
  • List of Countries
  • For 7 days
  • Water Temperature
  • Weather Map
  • News
  • Weather Widgets
  • user-avatar
    Login

    Hourly Weather Elk Grove

    Today, 14 November, Thursday

    Time Temperature Precipitation Wind Pressure Humidity
    00:00 +15°C° 0 mm 2 mps 760 mmHg 69%
    01:00 +14°C° 0 mm 2 mps 760 mmHg 74%
    02:00 +14°C° 0 mm 2 mps 760 mmHg 78%
    03:00 +13°C° 0 mm 2 mps 761 mmHg 82%
    04:00 +13°C° 0 mm 2 mps 761 mmHg 86%
    05:00 +13°C° 0 mm 2 mps 761 mmHg 87%
    06:00 +12°C° 0 mm 2 mps 761 mmHg 89%
    07:00 +12°C° 0 mm 2 mps 761 mmHg 90%
    08:00 +14°C° 0 mm 2 mps 761 mmHg 81%
    09:00 +16°C° 0 mm 2 mps 761 mmHg 72%
    10:00 +17°C° 0 mm 3 mps 762 mmHg 63%
    11:00 +19°C° 0 mm 3 mps 761 mmHg 57%
    12:00 +20°C° 0 mm 3 mps 761 mmHg 51%
    13:00 +22°C° 0 mm 4 mps 761 mmHg 45%
    14:00 +20°C° 0 mm 4 mps 761 mmHg 50%
    15:00 +19°C° 0 mm 5 mps 761 mmHg 56%
    16:00 +17°C° 0 mm 5 mps 761 mmHg 61%
    17:00 +15°C° 0 mm 4 mps 762 mmHg 66%
    18:00 +14°C° 0 mm 4 mps 762 mmHg 72%
    19:00 +12°C° 0 mm 3 mps 763 mmHg 78%
    20:00 +12°C° 0 mm 3 mps 763 mmHg 81%
    21:00 +12°C° 0 mm 2 mps 764 mmHg 85%
    22:00 +10°C° 0 mm 2 mps 764 mmHg 88%
    23:00 +10°C° 0 mm 2 mps 764 mmHg 89%

    Tomorrow, 15 November, Friday

    Time Temperature Precipitation Wind Pressure Humidity
    00:00 +11°C° 0 mm 1 mps 764 mmHg 90%
    01:00 +10°C° 0 mm 1 mps 764 mmHg 91%
    02:00 +10°C° 0 mm 1 mps 764 mmHg 91%
    03:00 +10°C° 0 mm 1 mps 764 mmHg 91%
    04:00 +10°C° 0 mm 1 mps 765 mmHg 91%
    05:00 +9°C° 0 mm 1 mps 765 mmHg 91%
    06:00 +9°C° 0 mm 1 mps 765 mmHg 91%
    07:00 +9°C° 0 mm 1 mps 765 mmHg 91%
    08:00 +11°C° 0 mm 1 mps 765 mmHg 82%
    09:00 +14°C° 0 mm 2 mps 765 mmHg 73%
    10:00 +16°C° 0 mm 2 mps 765 mmHg 64%
    11:00 +17°C° 0 mm 3 mps 765 mmHg 58%
    12:00 +19°C° 0 mm 3 mps 764 mmHg 51%
    13:00 +20°C° 0 mm 3 mps 763 mmHg 45%
    14:00 +21°C° 0 mm 3 mps 763 mmHg 45%
    15:00 +21°C° 0 mm 2 mps 763 mmHg 44%
    16:00 +21°C° 0 mm 2 mps 762 mmHg 43%
    17:00 +20°C° 0 mm 1 mps 763 mmHg 49%
    18:00 +18°C° 0 mm 1 mps 763 mmHg 55%
    19:00 +15°C° 0 mm 1 mps 763 mmHg 62%
    20:00 +14°C° 0 mm 1 mps 764 mmHg 65%
    21:00 +13°C° 0 mm 1 mps 764 mmHg 69%
    22:00 +13°C° 0 mm 1 mps 764 mmHg 73%
    23:00 +12°C° 0 mm 1 mps 764 mmHg 75%

    Day after tomorrow, 16 November, Saturday

    Time Temperature Precipitation Wind Pressure Humidity
    00:00 +12°C° 0 mm 1 mps 764 mmHg 76%
    01:00 +12°C° 0 mm 1 mps 764 mmHg 78%
    02:00 +11°C° 0 mm 1 mps 763 mmHg 79%
    03:00 +11°C° 0 mm 1 mps 763 mmHg 79%
    04:00 +10°C° 0 mm 0 mps 763 mmHg 80%
    05:00 +9°C° 0 mm 0 mps 763 mmHg 80%
    06:00 +9°C° 0 mm 0 mps 764 mmHg 81%
    07:00 +9°C° 0 mm 0 mps 764 mmHg 81%
    08:00 +11°C° 0 mm 0 mps 764 mmHg 71%
    09:00 +14°C° 0 mm 0 mps 764 mmHg 61%
    10:00 +19°C° 0 mm 1 mps 764 mmHg 51%
    11:00 +20°C° 0 mm 1 mps 763 mmHg 46%
    12:00 +22°C° 0 mm 1 mps 763 mmHg 40%
    13:00 +24°C° 0 mm 1 mps 762 mmHg 34%
    14:00 +23°C° 0 mm 1 mps 762 mmHg 35%
    15:00 +23°C° 0 mm 1 mps 762 mmHg 35%
    16:00 +23°C° 0 mm 1 mps 762 mmHg 36%
    17:00 +21°C° 0 mm 1 mps 762 mmHg 40%
    18:00 +19°C° 0 mm 1 mps 763 mmHg 44%
    19:00 +16°C° 0 mm 1 mps 763 mmHg 49%
    20:00 +15°C° 0 mm 1 mps 763 mmHg 51%
    21:00 +15°C° 0 mm 1 mps 764 mmHg 54%
    22:00 +14°C° 0 mm 1 mps 764 mmHg 57%
    23:00 +14°C° 0 mm 1 mps 764 mmHg 57%

    17 November, Sunday

    Time Temperature Precipitation Wind Pressure Humidity
    00:00 +13°C° 0 mm 1 mps 764 mmHg 58%
    01:00 +13°C° 0 mm 1 mps 764 mmHg 59%
    02:00 +12°C° 0 mm 0 mps 764 mmHg 60%
    03:00 +11°C° 0 mm 0 mps 764 mmHg 61%
    04:00 +11°C° 0 mm 0 mps 764 mmHg 62%
    05:00 +12°C° 0 mm 1 mps 764 mmHg 62%
    06:00 +11°C° 0 mm 1 mps 764 mmHg 62%
    07:00 +11°C° 0 mm 1 mps 764 mmHg 62%
    08:00 +14°C° 0 mm 1 mps 764 mmHg 53%
    09:00 +18°C° 0 mm 1 mps 764 mmHg 44%
    10:00 +21°C° 0 mm 1 mps 764 mmHg 35%
    11:00 +22°C° 0 mm 1 mps 763 mmHg 32%
    12:00 +24°C° 0 mm 1 mps 762 mmHg 29%
    13:00 +25°C° 0 mm 2 mps 762 mmHg 25%
    14:00 +25°C° 0 mm 1 mps 762 mmHg 26%
    15:00 +25°C° 0 mm 1 mps 762 mmHg 27%
    16:00 +24°C° 0 mm 1 mps 761 mmHg 28%
    17:00 +22°C° 0 mm 1 mps 762 mmHg 31%
    18:00 +20°C° 0 mm 1 mps 762 mmHg 34%
    19:00 +18°C° 0 mm 1 mps 762 mmHg 37%
    20:00 +16°C° 0 mm 1 mps 762 mmHg 38%
    21:00 +16°C° 0 mm 1 mps 762 mmHg 40%
    22:00 +15°C° 0 mm 1 mps 763 mmHg 42%
    23:00 +15°C° 0 mm 1 mps 763 mmHg 43%

    18 November, Monday

    Time Temperature Precipitation Wind Pressure Humidity
    00:00 +14°C° 0 mm 1 mps 762 mmHg 43%
    01:00 +14°C° 0 mm 1 mps 762 mmHg 44%
    02:00 +14°C° 0 mm 1 mps 762 mmHg 44%
    03:00 +13°C° 0 mm 1 mps 762 mmHg 44%
    04:00 +13°C° 0 mm 1 mps 762 mmHg 44%
    05:00 +13°C° 0 mm 1 mps 762 mmHg 45%
    06:00 +12°C° 0 mm 1 mps 762 mmHg 46%
    07:00 +11°C° 0 mm 0 mps 762 mmHg 47%
    08:00 +14°C° 0 mm 0 mps 762 mmHg 40%
    09:00 +19°C° 0 mm 1 mps 762 mmHg 34%
    10:00 +22°C° 0 mm 1 mps 762 mmHg 28%
    11:00 +23°C° 0 mm 1 mps 761 mmHg 25%
    12:00 +25°C° 0 mm 1 mps 761 mmHg 23%
    13:00 +27°C° 0 mm 1 mps 760 mmHg 21%
    14:00 +26°C° 0 mm 1 mps 760 mmHg 23%
    15:00 +23°C° 0 mm 0 mps 759 mmHg 24%
    16:00 +23°C° 0 mm 0 mps 759 mmHg 26%
    17:00 +23°C° 0 mm 1 mps 759 mmHg 28%
    18:00 +21°C° 0 mm 1 mps 760 mmHg 31%
    19:00 +19°C° 0 mm 1 mps 760 mmHg 34%
    20:00 +18°C° 0 mm 1 mps 760 mmHg 36%
    21:00 +16°C° 0 mm 1 mps 760 mmHg 37%
    22:00 +16°C° 0 mm 1 mps 760 mmHg 39%
    23:00 +14°C° 0 mm 0 mps 760 mmHg 40%

    19 November, Tuesday

    Time Temperature Precipitation Wind Pressure Humidity
    00:00 +14°C° 0 mm 0 mps 759 mmHg 41%
    01:00 +13°C° 0 mm 0 mps 759 mmHg 42%
    02:00 +13°C° 0 mm 0 mps 759 mmHg 43%
    03:00 +12°C° 0 mm 0 mps 759 mmHg 44%
    04:00 +12°C° 0 mm 0 mps 759 mmHg 45%
    05:00 +12°C° 0 mm 0 mps 759 mmHg 46%
    06:00 +11°C° 0 mm 0 mps 759 mmHg 48%
    07:00 +11°C° 0 mm 0 mps 759 mmHg 49%
    08:00 +14°C° 0 mm 0 mps 759 mmHg 43%
    09:00 +18°C° 0 mm 1 mps 758 mmHg 36%
    10:00 +21°C° 0 mm 1 mps 758 mmHg 30%
    11:00 +23°C° 0 mm 1 mps 758 mmHg 28%
    12:00 +24°C° 0 mm 2 mps 757 mmHg 26%
    13:00 +26°C° 0 mm 2 mps 756 mmHg 24%
    14:00 +25°C° 0 mm 2 mps 756 mmHg 26%
    15:00 +25°C° 0 mm 3 mps 756 mmHg 27%
    16:00 +24°C° 0 mm 3 mps 756 mmHg 29%
    17:00 +21°C° 0 mm 3 mps 756 mmHg 36%
    18:00 +18°C° 0 mm 3 mps 756 mmHg 43%
    19:00 +16°C° 0 mm 3 mps 756 mmHg 50%
    20:00 +14°C° 0 mm 3 mps 756 mmHg 59%
    21:00 +14°C° 0 mm 3 mps 756 mmHg 68%
    22:00 +13°C° 0 mm 3 mps 757 mmHg 77%
    23:00 +13°C° 0.2 mm 3 mps 757 mmHg 80%
    Show more